FW7233 Weather Reports


Display with metric or nautical units.
time (UTC)temp
F
wind
direction
speed
MPH
gust
MPH
rain 1hr
in
rain 24hr
in
rain mn
in
humidity
%
barometer
mb
20260509134647 58 218 1.0 2.0 0.00 0.00 0.00 60 1020.5
20260509132647 60 223 2.0 4.0 0.00 0.00 0.00 59 1020.6
20260509131645 61 16 2.0 4.0 0.00 0.00 0.00 56 1020.6
20260509130645 59 143 0.0 2.0 0.00 0.00 0.00 67 1020.5
20260509125646 60 145 1.0 3.0 0.00 0.00 0.00 61 1020.7
20260509124646 62 58 1.0 3.0 0.00 0.00 0.00 58 1020.8
20260509123644 60 46 1.0 3.0 0.00 0.00 0.00 64 1020.9
20260509122648 58 112 0.0 4.0 0.00 0.00 0.00 66 1021.1
20260509121647 58 152 1.0 4.0 0.00 0.00 0.00 67 1021.1
20260509113645 55 147 0.0 2.0 0.00 0.00 0.00 75 1021.4
20260509112645 56 30 0.0 1.0 0.00 0.00 0.00 73 1021.2
20260509111637 58 156 0.0 2.0 0.00 0.00 0.00 71 1021.5
20260509110636 58 147 0.0 2.0 0.00 0.00 0.00 73 1021.5
20260509104635 53 237 1.0 2.0 0.00 0.00 0.00 80 1021.4
20260509103636 53 133 0.0 2.0 0.00 0.00 0.00 83 1021.6
20260509102636 52 108 0.0 2.0 0.00 0.00 0.00 82 1021.7
20260509101635 53 87 0.0 2.0 0.00 0.00 0.00 82 1021.6
20260509095637 51 116 0.0 2.0 0.00 0.00 0.00 86 1021.7
20260509094635 51 140 1.0 2.0 0.00 0.00 0.00 87 1021.7
20260509093636 52 84 1.0 3.0 0.00 0.00 0.00 87 1021.6
20260509091637 53 51 1.0 2.0 0.00 0.00 0.00 86 1021.4
20260509090635 53 164 2.0 2.0 0.00 0.00 0.00 87 1021.5
20260509085637 51 114 0.0 2.0 0.00 0.00 0.00 92 1021.4
20260509082635 50 24 1.0 3.0 0.00 0.00 0.00 92 1021.4
20260509081635 50 79 0.0 3.0 0.00 0.00 0.00 92 1021.3
20260509080636 50 136 0.0 2.0 0.00 0.00 0.00 91 1021.2
20260509074637 52 169 0.0 2.0 0.00 0.00 0.00 92 1020.9
20260509073636 51 138 0.0 2.0 0.00 0.00 0.00 94 1021.3
20260509072635 49 1 1.0 4.0 0.00 0.00 0.00 95 1021.0
20260509070635 49 144 0.0 3.0 0.00 0.00 0.00 94 1020.9
20260509065641 49 31 0.0 2.0 0.00 0.00 0.00 94 1020.9
20260509064635 49 137 0.0 1.0 0.00 0.00 0.00 94 1020.8
20260509063638 48 142 0.0 3.0 0.00 0.00 0.00 94 1020.6
20260509061636 49 145 0.0 1.0 0.00 0.00 0.00 93 1020.8
20260509060635 49 85 0.0 1.0 0.00 0.00 0.00 93 1020.5
20260509055636 49 139 0.0 1.0 0.00 0.00 0.00 94 1020.5
20260509054636 49 137 0.0 1.0 0.00 0.00 0.00 94 1020.4
20260509052635 48 29 0.0 1.0 0.00 0.00 0.00 95 1020.5
20260509045635 47 130 0.0 1.0 0.00 0.00 0.00 99 1020.7
20260509043635 47 139 0.0 0.0 0.00 0.00 0.00 99 1020.3
20260509042635 46 133 0.0 0.0 0.00 0.00 0.00 99 1020.6
20260509041635 46 136 0.0 0.0 0.00 0.00 0.00 99 1020.3
20260509040635 46 148 0.0 0.0 0.00 0.00 0.00 99 1020.2
20260509035635 46 129 0.0 0.0 0.00 0.00 0.00 99 1020.1
20260509033636 46 142 0.0 1.0 0.00 0.00 0.00 99 1020.1
20260509031637 46 134 0.0 1.0 0.00 0.00 0.00 99 1020.2
20260509030637 46 145 0.0 0.0 0.00 0.00 0.00 99 1020.2
20260509025637 46 134 0.0 0.0 0.00 0.00 0.00 99 1020.2
20260509024635 46 139 0.0 0.0 0.00 0.00 0.00 99 1020.2
20260509023638 46 138 0.0 0.0 0.00 0.00 0.00 99 1020.2
20260509022638 46 135 0.0 0.0 0.00 0.00 0.00 99 1020.3
20260509021636 46 149 0.0 0.0 0.00 0.00 0.00 99 1020.4
20260509020635 46 139 0.0 0.0 0.00 0.00 0.00 99 1020.2
20260509015637 46 147 0.0 0.0 0.00 0.00 0.00 99 1020.1
20260509013648 46 146 0.0 0.0 0.00 0.00 0.00 99 1020.1
20260509012636 47 142 0.0 0.0 0.00 0.00 0.00 99 1020.4
20260509010635 47 133 0.0 0.0 0.00 0.00 0.00 99 1020.1
20260509005638 47 133 0.0 0.0 0.00 0.00 0.00 99 1019.9
20260509004637 47 134 0.0 0.0 0.00 0.00 0.00 99 1020.2
20260509003638 47 139 0.0 0.0 0.00 0.00 0.00 99 1020.3
20260509002636 47 133 0.0 0.0 0.00 0.00 0.00 99 1020.2
20260509001636 47 142 0.0 0.0 0.00 0.00 0.00 99 1020.2
20260509000639 47 146 0.0 0.0 0.00 0.00 0.00 99 1020.1
20260508235638 47 142 0.0 1.0 0.00 0.00 0.00 99 1020.3
20260508234635 47 152 0.0 0.0 0.00 0.00 0.00 99 1020.3
20260508233635 47 143 0.0 1.0 0.00 0.00 0.00 99 1020.2
20260508232635 47 194 1.0 1.0 0.00 0.00 0.00 99 1020.1
20260508231635 47 154 0.0 0.0 0.00 0.00 0.00 99 1020.1
20260508225636 47 145 0.0 0.0 0.00 0.00 0.00 99 1020.1
20260508223636 47 135 0.0 0.0 0.00 0.00 0.00 99 1020.2
20260508222638 47 157 0.0 0.0 0.00 0.00 0.00 99 1020.1
20260508221636 47 154 0.0 0.0 0.00 0.00 0.00 99 1019.9
20260508215635 47 146 0.0 0.0 0.00 0.00 0.00 99 1020.0
20260508214635 47 154 0.0 0.0 0.00 0.00 0.00 99 1020.2
20260508213636 47 142 0.0 0.0 0.00 0.00 0.00 99 1020.2
20260508212634 47 128 0.0 0.0 0.00 0.00 0.00 99 1020.3
20260508211637 47 145 0.0 0.0 0.00 0.00 0.00 99 1020.4
20260508205637 47 148 0.0 0.0 0.00 0.00 0.00 99 1020.3
20260508203638 47 150 0.0 0.0 0.00 0.00 0.00 99 1020.4
20260508202635 47 149 0.0 0.0 0.00 0.00 0.00 99 1020.2
20260508200636 47 150 0.0 0.0 0.00 0.00 0.00 99 1020.3
20260508195635 48 150 0.0 0.0 0.00 0.00 0.00 98 1020.4
20260508193636 47 148 0.0 0.0 0.00 0.00 0.00 98 1020.3
20260508192637 48 148 0.0 0.0 0.00 0.00 0.00 98 1020.4
20260508191635 48 148 0.0 0.0 0.00 0.00 0.00 98 1020.3
20260508190635 48 148 0.0 0.0 0.00 0.00 0.00 97 1020.1
20260508185638 48 148 0.0 0.0 0.00 0.00 0.00 96 1020.2
20260508184635 48 148 0.0 0.0 0.00 0.00 0.00 96 1020.0
20260508182635 49 148 0.0 0.0 0.00 0.00 0.00 94 1019.8
20260508181638 49 148 0.0 0.0 0.00 0.00 0.00 93 1019.7
20260508175635 50 127 0.0 0.0 0.00 0.00 0.00 91 1019.5
20260508174635 50 145 0.0 1.0 0.00 0.00 0.00 91 1019.7
20260508173635 50 142 0.0 1.0 0.00 0.00 0.00 90 1019.5
20260508171635 51 125 0.0 1.0 0.00 0.00 0.00 89 1019.2
20260508170635 51 130 0.0 1.0 0.00 0.00 0.00 88 1019.3
20260508165636 51 154 0.0 1.0 0.00 0.00 0.00 88 1019.6
20260508164636 51 69 0.0 2.0 0.00 0.00 0.00 88 1019.5
20260508163636 51 126 0.0 1.0 0.00 0.00 0.00 88 1019.4
20260508162636 51 113 0.0 1.0 0.00 0.00 0.00 88 1019.3
20260508161636 51 114 0.0 2.0 0.00 0.00 0.00 88 1019.4
20260508160637 52 145 0.0 1.0 0.00 0.00 0.00 88 1019.1
20260508155635 52 118 0.0 1.0 0.00 0.00 0.00 88 1019.3
20260508154635 52 181 1.0 2.0 0.00 0.00 0.00 89 1019.2
20260508153636 51 133 0.0 1.0 0.00 0.00 0.00 90 1019.3
20260508152637 51 126 0.0 2.0 0.00 0.00 0.00 89 1019.1
20260508151637 51 126 0.0 1.0 0.00 0.00 0.00 88 1019.2
20260508150648 52 141 0.0 4.0 0.00 0.00 0.00 86 1018.9
20260508145635 53 127 0.0 4.0 0.00 0.00 0.00 82 1019.2
20260508144635 54 66 0.0 2.0 0.00 0.00 0.00 82 1019.1
20260508143635 54 136 0.0 3.0 0.00 0.00 0.00 82 1019.4
20260508142648 54 134 0.0 2.0 0.00 0.00 0.00 83 1019.1
20260508141650 54 107 0.0 4.0 0.00 0.00 0.00 84 1019.3
20260508140638 53 109 0.0 2.0 0.00 0.00 0.00 85 1019.2
20260508135636 53 61 0.0 3.0 0.00 0.00 0.00 86 1019.3